Regional Weather Roundup
Issued by NWS

Home | Current Version | Previous Version | Text Only | Print | Product List | Glossary Off
Versions: 1 2 3 4 5 6 7 8 9 10 11 12 13 14 15 16 17 18 19 20 21 22 23 24 25 26 27 28

000
ASUS45 KSLC 180710
RWRUT

UTAH REGIONAL WEATHER ROUNDUP
NATIONAL WEATHER SERVICE SALT LAKE CITY UT
100 AM MDT FRI AUG 18 2017

UTZ001>011-023>025-180800-

NORTHERN UTAH

CITY           SKY/WX    TMP DP  RH WIND       PRES   REMARKS
BRIGHAM CITY   CLEAR     66  41  39 S6        30.13S
HILL AFB       CLEAR     69  35  28 SE13      30.15R
LOGAN          CLEAR     63  45  51 CALM      30.16R
OGDEN          CLEAR     68  36  30 S8        30.12R
SALT LAKE CITY CLEAR     74  38  27 SE6       30.11R
TOOELE VALLEY  CLEAR     63  36  36 SE6       30.13R
WENDOVER       CLEAR     78  39  24 N14       30.13R
HEBER CITY     CLEAR     52  43  71 CALM      30.23R
WEST JORDAN    CLEAR     66  48  52 CALM      30.14R

$$

UTZ011>015-024>027-180800-

CENTRAL/NORTHEAST UTAH

CITY           SKY/WX    TMP DP  RH WIND       PRES   REMARKS
PROVO AIRPORT  CLEAR     64  47  53 CALM      30.14R
MOAB/CANYONLAN CLEAR     70  32  24 W5        30.08R
DELTA          CLEAR     66  36  32 NE8       30.13S
PRICE          CLEAR     62  38  40 NE6       30.22R
ROOSEVELT      CLEAR     59  45  58 W5        30.19S
VERNAL         CLEAR     60  47  61 W5        30.17R

$$

UTZ013>016-019>022-027-180800-

SOUTHERN UTAH

CITY           SKY/WX    TMP DP  RH WIND       PRES   REMARKS
BRYCE CANYON   CLEAR     50  40  68 W7        30.38R
CEDAR CITY     CLEAR     66  38  35 SE3       30.21R
MILFORD        CLEAR     62  36  37 S8        30.15R
ST GEORGE      SUNNY     78  44  29 SE10      30.01R
HANKSVILLE     CLEAR     66  30  26 CALM      30.12R
BLANDING       CLEAR     63  31  30 N3        30.28S

$$

REGIONAL REPORTS     COLORADO/ARIZONA

CITY           SKY/WX    TMP DP  RH WIND       PRES   REMARKS
CRAIG, CO      MOCLDY    54  40  59 NW5       30.26R
GRAND JUNCTION CLEAR     68  38  33 SE13      30.13S
RIFLE, CO      CLEAR     64  38  38 CALM      30.21S
MONTROSE, CO   CLEAR     64  37  36 SE13      30.23S
CORTEZ, CO     CLEAR     55  35  47 E5        30.24R
COLORADO CITY    N/A     59  48  67 SE7       30.19S
PAGE, AZ       CLEAR     80  36  20 SW6       30.09R
GRAND CANYON   CLEAR     50  34  54 CALM      30.33R
KINGMAN, AZ    CLEAR     68  36  30 CALM      30.08R
FLAGSTAFF, AZ  CLEAR     49  37  63 CALM      30.35F

$$

REGIONAL REPORTS    NEVADA/IDAHO/WYOMING

CITY           SKY/WX    TMP DP  RH WIND       PRES   REMARKS
LAS VEGAS, NV  CLEAR     89  39  17 SW6       29.95R
ELY, NY        CLEAR     54  35  48 S8        30.27R
ELKO, NV       CLEAR     66  31  27 NE6       30.20R
POCATELLO, ID  CLEAR     60  35  39 S5        30.14S
BURLEY, ID     CLEAR     58  43  57 S9        30.12R
FORT BRIDGER,    N/A     62  32  32 W9        30.35S
EVANSTON, WY   CLEAR     58  34  40 S7        30.33S
ROCK SPRINGS,  CLEAR     59  30  33 NW6       30.29S
KEMMERER, WY     N/A     52  32  46 NW9       30.34S

$$




USA.gov is the U.S. government's official web portal to all federal, state and local government web resources and services.